Home   Weather   Bologna   Past weeks

Flag for Italy Past Weather in Bologna, Italy — Yesterday and Last 2 Weeks

Now
45 °F

Drizzle. Fog.


Feels Like: 41 °F
Forecast: 41 / 45 °F
Wind: 6 mph from West

Location: Bologna / Borgo Panigale

Current Time: Dec 4, 2016 at 5:33:35 pm

Latest Report: Dec 4, 2016 at 4:50 pm


Visibility: 3 mi

Pressure: 30.30 "Hg

Humidity: 93%

Dew Point: 43 °F

Location of BolognaLocation

Past Weather in Bologna — Graph

°F

Bologna Temperature Yesterday

Maximum temperature yesterday: 46 °F (at 11:50 am)
Minimum temperature yesterday: 36 °F (at 12:20 am)
Average temperature yesterday: 42 °F

High & Low Weather Summary for the Past Weeks

 TemperatureHumidityPressure
High61 °F (Nov 25, 10:50 am)100% (Nov 19, 6:20 pm)30.54 "Hg (Nov 19, 6:20 pm)
Low28 °F (Nov 30, 5:50 am)39% (Nov 29, 12:20 pm)29.86 "Hg (Nov 19, 4:20 pm)
Average47 °F88%30.12 "Hg
* Reported Nov 19 4:20 pm — Dec 4 4:20 pm, Bologna, Weather by CustomWeather, © 2016

Note: Actual official high and low records may vary slightly from our data, if they occured in-between our weather recording intervals... More about our weather records

Advertising

Bologna Weather History for the Previous 24 Hours

Scroll right to see more
 ConditionsComfort  
Time TempWeatherWind HumidityBarometerVisibility
4:20 pm
Sun, Dec 4
45 °FFog.6 mph87%30.30 "Hg3 mi
3:50 pm45 °FDrizzle. Fog.7 mph87%30.30 "Hg3 mi
3:20 pm46 °FPartly sunny.5 mph82%30.30 "Hg4 mi
2:50 pm46 °FPartly sunny.2 mph82%30.30 "Hg4 mi
2:20 pm46 °FPartly sunny.3 mph82%30.30 "Hg4 mi
1:50 pm46 °FPartly sunny.1 mph87%30.33 "Hg4 mi
1:20 pm46 °FPartly sunny.2 mph82%30.33 "Hg4 mi
12:50 pm46 °FPartly sunny.3 mph82%30.33 "Hg4 mi
12:20 pm46 °FPartly sunny.5 mph82%30.33 "Hg4 mi
11:50 am46 °FFog.5 mph82%30.33 "Hg3 mi
11:20 am46 °FFog.6 mph82%30.33 "Hg3 mi
10:50 am46 °FFog.6 mph82%30.33 "Hg3 mi
10:20 am46 °FFog.6 mph82%30.33 "Hg3 mi
9:50 am46 °FFog.5 mph82%30.33 "Hg3 mi
8:50 am45 °FFog.3 mph87%30.33 "Hg3 mi
8:20 am45 °FPartly sunny.2 mph87%30.30 "Hg4 mi
7:50 am45 °FPartly sunny.2 mph87%30.30 "Hg4 mi
7:20 am45 °FPassing clouds.3 mph87%30.30 "Hg4 mi
6:50 am45 °FPassing clouds.5 mph87%30.30 "Hg4 mi
6:20 am45 °FFog.3 mph87%30.30 "Hg3 mi
5:50 am45 °FFog.2 mph87%30.30 "Hg3 mi
5:20 am45 °FFog.3 mph87%30.30 "Hg3 mi
4:50 am45 °FFog.3 mph87%30.27 "Hg3 mi
4:20 am45 °FFog.3 mph87%30.27 "Hg2 mi
3:50 am45 °FFog.3 mph87%30.27 "Hg2 mi
3:20 am45 °FFog.5 mph87%30.27 "Hg2 mi
2:50 am45 °FFog.5 mph93%30.30 "Hg2 mi
2:20 am45 °FFog.5 mph93%30.27 "Hg2 mi
1:50 am43 °FFog.5 mph100%30.27 "Hg2 mi
1:20 am43 °FLight rain. Fog.7 mph93%30.27 "Hg2 mi
12:50 am43 °FLight rain. Passing clouds.6 mph100%30.27 "Hg1 mi
12:20 am45 °FFog.7 mph93%30.27 "Hg2 mi
11:50 pm
Sat, Dec 3
45 °FFog.7 mph87%30.27 "Hg2 mi
11:20 pm43 °FFog.7 mph100%30.27 "Hg2 mi
10:50 pm43 °FFog.7 mph100%30.27 "Hg2 mi
10:20 pm43 °FFog.7 mph100%30.27 "Hg1 mi
9:50 pm43 °FDrizzle. Fog.7 mph100%30.27 "Hg1 mi
9:20 pm43 °FFog.8 mph100%30.27 "Hg1 mi
8:50 pm43 °FFog.8 mph100%30.24 "Hg1 mi
8:20 pm43 °FFog.7 mph100%30.24 "Hg1 mi
7:20 pm43 °FPartly cloudy.6 mph100%30.24 "HgN/A
6:50 pm43 °FPassing clouds.6 mph93%30.24 "HgN/A
6:20 pm43 °FPassing clouds.5 mph93%30.21 "HgN/A
5:50 pm45 °FPassing clouds.7 mph87%30.21 "HgN/A
5:20 pm45 °FPassing clouds.5 mph87%30.21 "HgN/A
Weather by CustomWeather, © 2016

See weather overviewHow to use our weather pages